EW4443 Weather Reports


time (UTC)temp
C
wind
direction
speed
KPH
gust
KPH
rain 1hr
cm
rain 24hr
cm
rain mn
cm
humidity
%
barometer
mb
20260502221042 34 158 3.2 11.3 0.00 0.00 0.00 13 1008.7
20260502220311 34 203 3.2 11.3 0.00 0.00 0.00 15 1009.0
20260502215812 34 0 1.6 11.3 0.00 0.00 0.00 15 1009.0
20260502215311 34 270 3.2 11.3 0.00 0.00 0.00 15 1009.0
20260502214812 34 225 3.2 14.5 0.00 0.00 0.00 15 1009.3
20260502214312 34 158 3.2 14.5 0.00 0.00 0.00 13 1009.3
20260502214044 34 203 3.2 14.5 0.00 0.00 0.00 15 1009.3
20260502213312 34 180 3.2 14.5 0.00 0.00 0.00 13 1009.3
20260502212816 34 135 3.2 12.9 0.00 0.00 0.00 13 1009.7
20260502212812 34 180 3.2 12.9 0.00 0.00 0.00 13 1009.7
20260502211811 34 248 3.2 16.1 0.00 0.00 0.00 12 1009.7
20260502211542 34 180 3.2 14.5 0.00 0.00 0.00 13 1009.7
20260502210810 34 248 1.6 8.0 0.00 0.00 0.00 17 1009.7
20260502210311 34 45 1.6 9.7 0.00 0.00 0.00 19 1010.0
20260502205811 33 338 1.6 14.5 0.00 0.00 0.00 19 1010.0
20260502205311 33 90 1.6 14.5 0.00 0.00 0.00 17 1010.0
20260502204811 33 180 0.0 6.4 0.00 0.00 0.00 15 1010.0
20260502204311 34 315 0.0 6.4 0.00 0.00 0.00 17 1010.0
20260502203810 34 0 1.6 6.4 0.00 0.00 0.00 17 1010.0
20260502203310 33 338 0.0 4.8 0.00 0.00 0.00 19 1010.5
20260502202814 33 0 1.6 8.0 0.00 0.00 0.00 19 1010.5
20260502202809 33 0 0.0 6.4 0.00 0.00 0.00 19 1010.5
20260502201811 33 68 1.6 8.0 0.00 0.00 0.00 17 1010.8
20260502201311 33 180 1.6 8.0 0.00 0.00 0.00 15 1010.8
20260502200813 33 225 1.6 14.5 0.00 0.00 0.00 17 1010.8
20260502200542 33 293 1.6 14.5 0.00 0.00 0.00 19 1010.5
20260502195811 33 180 1.6 8.0 0.00 0.00 0.00 17 1010.8
20260502195310 33 68 1.6 6.4 0.00 0.00 0.00 17 1011.1
20260502194810 33 180 1.6 9.7 0.00 0.00 0.00 17 1011.1
20260502194309 33 180 1.6 11.3 0.00 0.00 0.00 19 1011.1
20260502194040 33 158 1.6 12.9 0.00 0.00 0.00 20 1011.1
20260502193311 33 248 1.6 12.9 0.00 0.00 0.00 20 1011.1
20260502192811 33 0 1.6 11.3 0.00 0.00 0.00 20 1011.5
20260502192311 33 180 1.6 11.3 0.00 0.00 0.00 20 1011.1
20260502191810 33 225 1.6 11.3 0.00 0.00 0.00 20 1011.5
20260502191311 33 225 1.6 11.3 0.00 0.00 0.00 20 1011.5
20260502190810 32 203 0.0 9.7 0.00 0.00 0.00 20 1011.8
20260502190309 32 45 1.6 9.7 0.00 0.00 0.00 20 1011.8
20260502185810 33 180 1.6 12.9 0.00 0.00 0.00 20 1011.8
20260502185310 32 203 1.6 12.9 0.00 0.00 0.00 20 1011.8
20260502184811 32 23 1.6 11.3 0.00 0.00 0.00 22 1012.1
20260502184311 32 180 1.6 14.5 0.00 0.00 0.00 20 1012.1
20260502183811 32 23 1.6 14.5 0.00 0.00 0.00 20 1012.1
20260502183311 32 248 1.6 11.3 0.00 0.00 0.00 20 1012.1
20260502182810 32 338 1.6 11.3 0.00 0.00 0.00 20 1012.1
20260502182541 32 315 1.6 9.7 0.00 0.00 0.00 22 1012.5
20260502181810 32 158 1.6 6.4 0.00 0.00 0.00 22 1012.5
20260502181309 32 23 0.0 12.9 0.00 0.00 0.00 22 1012.5
20260502180809 32 225 3.2 12.9 0.00 0.00 0.00 22 1012.5
20260502180541 32 180 1.6 11.3 0.00 0.00 0.00 22 1012.5
20260502163751 30 248 1.6 16.1 0.00 0.00 0.00 25 1012.8
20260502163251 29 68 1.6 16.1 0.00 0.00 0.00 25 1012.8
20260502162757 29 203 1.6 11.3 0.00 0.00 0.00 25 1012.8
20260502162251 28 180 0.0 9.7 0.00 0.00 0.00 27 1013.3
20260502161752 28 0 1.6 9.7 0.00 0.00 0.00 27 1012.8
20260502161251 28 248 1.6 16.1 0.00 0.00 0.00 27 1012.8
20260502160753 28 203 1.6 16.1 0.00 0.00 0.00 30 1012.8
20260502160250 28 270 1.6 8.0 0.00 0.00 0.00 27 1012.8
20260502152240 26 45 1.6 9.7 0.00 0.00 0.00 32 1012.8
20260502151734 25 0 1.6 12.9 0.00 0.00 0.00 34 1012.8
20260502151232 25 338 1.6 12.9 0.00 0.00 0.00 34 1012.5
20260502150731 24 293 1.6 9.7 0.00 0.00 0.00 35 1012.5
20260502150231 24 225 0.0 9.7 0.00 0.00 0.00 35 1012.5
20260502130655 18 68 0.0 3.2 0.00 0.00 0.00 43 1011.1
20260502130156 18 45 0.0 1.6 0.00 0.00 0.00 43 1011.1
20260502123655 18 45 0.0 0.0 0.00 0.00 0.00 41 1010.8
20260502123155 18 23 0.0 0.0 0.00 0.00 0.00 41 1010.8
20260502122655 18 113 0.0 0.0 0.00 0.00 0.00 41 1010.8
20260502122155 18 113 0.0 0.0 0.00 0.00 0.00 40 1010.5
20260502121656 18 90 0.0 0.0 0.00 0.00 0.00 40 1010.8
20260502121154 18 45 0.0 0.0 0.00 0.00 0.00 40 1010.5
20260502120656 19 45 0.0 0.0 0.00 0.00 0.00 40 1010.5
20260502120425 19 45 0.0 0.0 0.00 0.00 0.00 39 1010.5
20260502115924 19 45 0.0 0.0 0.00 0.00 0.00 39 1010.5
20260502115155 19 45 0.0 0.0 0.00 0.00 0.00 39 1010.5
20260502114655 19 23 0.0 0.0 0.00 0.00 0.00 37 1010.5
20260502114156 19 23 0.0 0.0 0.00 0.00 0.00 37 1010.5
20260502113655 19 45 0.0 0.0 0.00 0.00 0.00 37 1010.5
20260502113155 19 45 0.0 0.0 0.00 0.00 0.00 37 1010.5
20260502112655 19 113 0.0 0.0 0.00 0.00 0.00 37 1010.5
20260502112155 19 90 0.0 0.0 0.00 0.00 0.00 37 1010.0
20260502111926 19 135 0.0 0.0 0.00 0.00 0.00 37 1010.0
20260502111154 20 45 0.0 0.0 0.00 0.00 0.00 37 1010.0
20260502110654 20 45 0.0 0.0 0.00 0.00 0.00 37 1010.0
20260502110155 20 45 0.0 0.0 0.00 0.00 0.00 37 1010.0
20260502105656 20 45 0.0 0.0 0.00 0.00 0.00 37 1010.0
20260502105156 20 180 0.0 0.0 0.00 0.00 0.00 37 1010.0
20260502104656 20 180 0.0 0.0 0.00 0.00 0.00 37 1010.0
20260502104426 20 45 0.0 0.0 0.00 0.00 0.00 37 1010.0
20260502103654 20 45 0.0 0.0 0.00 0.00 0.00 35 1010.0
20260502103153 20 45 0.0 0.0 0.00 0.00 0.00 35 1010.0
20260502102654 20 45 0.0 0.0 0.00 0.00 0.00 35 1010.0
20260502102154 20 23 0.0 0.0 0.00 0.00 0.00 35 1010.0
20260502101655 20 180 0.0 0.0 0.00 0.00 0.00 34 1009.7
20260502101155 20 158 0.0 0.0 0.00 0.00 0.00 35 1009.7
20260502100655 21 225 0.0 0.0 0.00 0.00 0.00 34 1009.7
20260502100156 21 180 0.0 0.0 0.00 0.00 0.00 34 1009.7
20260502091155 21 270 0.0 0.0 0.00 0.00 0.00 29 1009.3
20260502090925 21 113 0.0 0.0 0.00 0.00 0.00 30 1009.3
20260502090154 21 248 0.0 0.0 0.00 0.00 0.00 29 1009.3
20260502071117 22 135 0.0 0.0 0.00 0.00 0.00 30 1009.3
20260502070851 22 135 0.0 0.0 0.00 0.00 0.00 31 1009.3
20260502070118 22 113 0.0 0.0 0.00 0.00 0.00 30 1009.0
20260502065619 22 135 0.0 0.0 0.00 0.00 0.00 30 1009.0
20260502065117 22 135 0.0 0.0 0.00 0.00 0.00 30 1009.3
20260502064616 22 158 0.0 0.0 0.00 0.00 0.00 30 1009.3
20260502064116 23 90 0.0 0.0 0.00 0.00 0.00 30 1009.0
20260502063616 23 90 0.0 0.0 0.00 0.00 0.00 30 1009.3
20260502063117 23 113 0.0 0.0 0.00 0.00 0.00 31 1009.0
20260502062617 23 90 0.0 0.0 0.00 0.00 0.00 31 1008.7
20260502062118 23 90 0.0 0.0 0.00 0.00 0.00 30 1008.7
20260502061617 23 113 0.0 0.0 0.00 0.00 0.00 30 1008.7
20260502061118 23 113 0.0 0.0 0.00 0.00 0.00 30 1008.7
20260502060617 23 90 0.0 0.0 0.00 0.00 0.00 30 1008.7
20260502060117 23 90 0.0 0.0 0.00 0.00 0.00 30 1008.7
20260502055617 23 68 0.0 0.0 0.00 0.00 0.00 30 1008.7
20260502055117 24 68 0.0 0.0 0.00 0.00 0.00 29 1008.7
20260502054847 24 90 0.0 0.0 0.00 0.00 0.00 30 1008.7
20260502054116 24 113 0.0 0.0 0.00 0.00 0.00 29 1008.7
20260502053600 24 113 0.0 0.0 0.00 0.00 0.00 29 1008.7
20260502053329 24 135 0.0 0.0 0.00 0.00 0.00 30 1009.0
20260502052831 24 135 0.0 0.0 0.00 0.00 0.00 30 1008.7
20260502052059 25 135 0.0 0.0 0.00 0.00 0.00 29 1008.7
20260502051559 25 135 0.0 0.0 0.00 0.00 0.00 30 1008.7
20260502051058 25 135 0.0 0.0 0.00 0.00 0.00 30 1008.7
20260502050829 25 135 0.0 0.0 0.00 0.00 0.00 30 1008.7
20260502050055 25 135 0.0 0.0 0.00 0.00 0.00 27 1008.3
20260502045040 25 158 0.0 0.0 0.00 0.00 0.00 27 1008.3
20260502044540 25 158 0.0 0.0 0.00 0.00 0.00 27 1008.3
20260502044040 25 180 0.0 0.0 0.00 0.00 0.00 25 1008.3
20260502043540 25 180 0.0 0.0 0.00 0.00 0.00 25 1008.3
20260502043040 26 180 0.0 0.0 0.00 0.00 0.00 27 1008.7
20260502042538 26 180 0.0 0.0 0.00 0.00 0.00 25 1008.3
20260502042310 26 180 0.0 0.0 0.00 0.00 0.00 25 1008.3
20260502041539 26 180 0.0 0.0 0.00 0.00 0.00 25 1008.3
20260502041038 26 180 0.0 0.0 0.00 0.00 0.00 25 1008.0
20260502040540 26 180 0.0 0.0 0.00 0.00 0.00 22 1008.0
20260502040040 26 135 0.0 0.0 0.00 0.00 0.00 25 1008.0
20260502035540 26 135 0.0 0.0 0.00 0.00 0.00 24 1008.0
20260502035040 27 135 0.0 0.0 0.00 0.00 0.00 25 1008.0
20260502034540 27 248 0.0 0.0 0.00 0.00 0.00 24 1008.0
20260502034310 27 315 0.0 0.0 0.00 0.00 0.00 25 1008.0
20260502033539 27 315 0.0 0.0 0.00 0.00 0.00 24 1007.6
20260502033039 27 0 0.0 0.0 0.00 0.00 0.00 24 1007.6
20260502032538 27 0 0.0 0.0 0.00 0.00 0.00 22 1007.6
20260502032040 27 338 0.0 0.0 0.00 0.00 0.00 22 1007.6
20260502031540 27 315 0.0 0.0 0.00 0.00 0.00 20 1007.3
20260502031312 28 90 0.0 0.0 0.00 0.00 0.00 22 1007.3
20260502030540 28 90 0.0 0.0 0.00 0.00 0.00 22 1007.3
20260502030040 28 90 0.0 0.0 0.00 0.00 0.00 20 1007.3
20260502025812 28 23 0.0 0.0 0.00 0.00 0.00 20 1006.9
20260502025032 28 23 0.0 0.0 0.00 0.00 0.00 22 1006.9
20260502024521 28 23 0.0 0.0 0.00 0.00 0.00 20 1006.9
20260502024020 29 23 0.0 1.6 0.00 0.00 0.00 20 1006.9
20260502023750 29 0 0.0 3.2 0.00 0.00 0.00 20 1006.9
20260502023020 29 315 0.0 4.8 0.00 0.00 0.00 19 1006.5
20260502022522 29 293 0.0 4.8 0.00 0.00 0.00 20 1006.9
20260502022021 30 338 0.0 6.4 0.00 0.00 0.00 20 1006.9
20260502021521 30 270 0.0 6.4 0.00 0.00 0.00 19 1006.5
20260502021021 30 293 0.0 4.8 0.00 0.00 0.00 19 1006.5
20260502020520 30 225 0.0 4.8 0.00 0.00 0.00 19 1006.5
20260502020021 30 315 0.0 8.0 0.00 0.00 0.00 19 1006.5
20260502015517 30 270 1.6 8.0 0.00 0.00 0.00 19 1006.5
20260502015002 30 0 1.6 9.7 0.00 0.00 0.00 17 1006.5
20260502014503 31 338 1.6 9.7 0.00 0.00 0.00 19 1006.5
20260502014003 31 248 1.6 8.0 0.00 0.00 0.00 17 1006.2
20260502013447 31 315 1.6 8.0 0.00 0.00 0.00 17 1006.5
20260502012944 31 270 1.6 11.3 0.00 0.00 0.00 17 1006.2
20260502012444 31 315 1.6 11.3 0.00 0.00 0.00 17 1006.5
20260502011942 31 270 1.6 11.3 0.00 0.00 0.00 17 1006.2
20260502011438 32 23 1.6 9.7 0.00 0.00 0.00 17 1006.5
20260502011155 32 248 3.2 9.7 0.00 0.00 0.00 17 1006.5
20260502010423 32 180 1.6 11.3 0.00 0.00 0.00 19 1006.5
20260502005924 32 338 1.6 12.9 0.00 0.00 0.00 17 1006.5
20260502005425 32 248 3.2 12.9 0.00 0.00 0.00 17 1006.5
20260502004926 32 0 1.6 9.7 0.00 0.00 0.00 17 1006.2
20260502004424 32 68 1.6 11.3 0.00 0.00 0.00 19 1006.2
20260502004156 32 270 1.6 11.3 0.00 0.00 0.00 19 1006.2
20260502003423 33 45 1.6 8.0 0.00 0.00 0.00 17 1006.2
20260502002923 33 338 1.6 8.0 0.00 0.00 0.00 17 1006.2
20260502002423 33 270 1.6 6.4 0.00 0.00 0.00 19 1006.2
20260502001922 33 0 1.6 8.0 0.00 0.00 0.00 17 1006.2
20260502001637 33 225 1.6 8.0 0.00 0.00 0.00 17 1006.2
20260502000910 33 23 1.6 8.0 0.00 0.00 0.00 17 1006.5
20260502000636 33 270 1.6 8.0 0.00 0.00 0.00 17 1006.5
20260501235904 33 248 1.6 9.7 0.00 0.00 0.00 17 1006.5
20260501235405 33 270 1.6 9.7 0.00 0.00 0.00 17 1006.5
20260501234905 33 338 1.6 8.0 0.00 0.00 0.00 19 1006.5
20260501234635 33 158 1.6 8.0 0.00 0.00 0.00 19 1006.5
20260501233904 33 90 1.6 9.7 0.00 0.00 0.00 20 1006.5
20260501233635 33 293 1.6 9.7 0.00 0.00 0.00 19 1006.5
20260501232905 33 225 1.6 8.0 0.00 0.00 0.00 20 1006.5
20260501232405 33 270 0.0 4.8 0.00 0.00 0.00 20 1006.5
20260501231905 33 225 0.0 9.7 0.00 0.00 0.00 20 1006.9
20260501231406 33 203 1.6 12.9 0.00 0.00 0.00 19 1006.5
20260501230907 33 270 3.2 12.9 0.00 0.00 0.00 19 1006.5
20260501230404 33 270 3.2 12.9 0.00 0.00 0.00 20 1006.5
20260501225904 33 293 3.2 12.9 0.00 0.00 0.00 19 1006.9
20260501225635 32 68 1.6 12.9 0.00 0.00 0.00 20 1006.9
20260501225135 32 180 1.6 8.0 0.00 0.00 0.00 20 1006.9
20260501224404 32 270 1.6 6.4 0.00 0.00 0.00 20 1006.9
20260501223904 32 68 0.0 6.4 0.00 0.00 0.00 19 1006.9
20260501223405 32 68 1.6 4.8 0.00 0.00 0.00 20 1007.3
20260501222905 32 225 0.0 6.4 0.00 0.00 0.00 19 1007.3
20260501222405 32 158 1.6 9.7 0.00 0.00 0.00 19 1007.3
20260501221904 32 0 1.6 12.9 0.00 0.00 0.00 19 1007.6
20260501221635 32 203 3.2 12.9 0.00 0.00 0.00 17 1007.3